Regional Weather Roundup
Issued by NWS

Home | Current Version | Previous Version | Text Only | Print | Product List | Glossary Off
Versions: 1 2 3 4 5 6 7 8 9 10 11 12 13 14 15 16 17 18 19 20 21 22 23 24 25 26 27 28 29 30 31 32 33 34 35 36 37 38 39 40 41 42 43 44 45 46 47 48 49 50

000
ASUS43 KFSD 252302
RWRSD

WEATHER ROUNDUP FOR SOUTH DAKOTA
NATIONAL WEATHER SERVICE SIOUX FALLS SD
600 PM CDT SUN SEP 25 2016

NOTE: "FAIR" INDICATES FEW OR NO CLOUDS BELOW 12,000 FEET WITH NO
SIGNIFICANT WEATHER AND/OR OBSTRUCTIONS TO VISIBILITY.


SDZ001>005-009-010-012>017-260000-
NORTHWEST AND NORTH CENTRAL SOUTH DAKOTA

CITY           SKY/WX    TMP DP  RH WIND       PRES   REMARKS
BUFFALO          N/A     64  36  35 NW29G38   30.20F
FAITH            N/A     63  33  32 NW31G37   30.23R
MOBRIDGE       SUNNY     66  29  24 NW23G36   30.12R
$$

SDZ012>016-024>037-041>051-057-063-072>074-260000-
SOUTHWEST AND SOUTH CENTRAL SOUTH DAKOTA

CITY           SKY/WX    TMP DP  RH WIND       PRES   REMARKS
RAPID CTY ARPT SUNNY     64  31  28 N20       30.30R
PIERRE         SUNNY     66  27  23 N25G35    30.17R
CUSTER         SUNNY     55  27  34 W12G20    30.36S
ELLSWORTH AFB  SUNNY     64  31  29 N17       30.29S
PHILIP         SUNNY     67  28  23 NW26G35   30.24R
PINE RIDGE     SUNNY     65  24  21 VRB6      30.30S
WINNER         FAIR      68  28  22 NW18G31   30.20S
$$

SDZ004>011-016>023-039-040-260000-
NORTHEAST SOUTH DAKOTA

CITY           SKY/WX    TMP DP  RH WIND       PRES   REMARKS
ABERDEEN       MOSUNNY   64  32  30 NW25G31   30.08R
WATERTOWN      MOSUNNY   62  39  42 NW17G30   30.04R
SISSETON         N/A     63  36  36 NW20G32   29.99R
$$

SDZ017-020-022-023-036>040-048>070-260000-
SOUTHEAST SOUTH DAKOTA

CITY           SKY/WX    TMP DP  RH WIND       PRES   REMARKS
SIOUX FALLS    MOSUNNY   65  41  41 NW20G28   30.08R
HURON          SUNNY     66  32  28 NW26G38   30.10R
CHAMBERLAIN    SUNNY     67  32  26 NW24G33   30.18R
MITCHELL       SUNNY     67  33  28 NW15G32   30.13R
YANKTON        SUNNY     66  34  30 NW23G29   30.12R
$$

ABBREVIATIONS USED IN REMARKS
   TC - TEMPERATURE IN CELSIUS
  WCI - WIND CHILL INDEX
   HX - HEAT INDEX
  VSB - VISIBILITY





USA.gov is the U.S. government's official web portal to all federal, state and local government web resources and services.